Theta_e
326 326 321 315 304 304 300 303 308 306 307 313 314 311 311 315 311 311 333 341 343 345 350 350 348 350 352 353 353 354 354 354 354 354 353 353 354 354 354 354 354 354 354 353 352 351 351 350 350
324 322 317 310 301 298 301 307 305 307 311 314 313 312 311 311 319 325 331 343 345 344 350 351 347 349 352 352 353 354 354 355 354 354 353 353 354 354 354 352 352 353 353 353 352 351 351 351 349
323 320 309 304 301 298 300 307 307 309 312 311 311 315 314 313 320 323 338 344 343 342 348 352 347 348 350 351 352 352 353 353 353 353 353 354 353 353 353 351 351 352 353 353 352 351 350 348 346
319 314 309 301 300 304 305 308 308 309 310 312 312 309 316 323 325 328 339 343 342 342 345 345 344 346 349 351 351 352 352 351 351 351 352 353 353 353 352 349 351 352 352 352 351 349 348 345 344
316 310 301 299 300 304 307 308 308 308 310 309 311 309 312 322 327 333 338 340 340 342 347 351 342 345 348 350 351 349 350 349 350 350 351 349 352 349 347 348 349 349 350 350 349 348 345 344 343
308 308 299 298 301 305 308 309 308 308 310 311 308 309 313 326 328 334 337 341 343 344 348 351 344 345 346 348 348 346 347 348 349 349 350 350 349 346 348 348 347 348 347 346 346 345 344 342 342
306 304 299 301 302 304 307 310 307 307 308 309 312 307 313 321 331 338 340 343 344 349 350 352 349 347 343 343 345 343 345 347 346 346 347 346 345 344 346 346 345 344 346 345 344 343 342 341 338
309 306 301 302 301 302 308 306 309 307 307 313 312 306 308 321 329 338 344 344 347 351 352 352 351 350 349 349 342 342 342 343 345 344 341 342 342 342 342 342 344 343 344 343 342 341 340 339 336
312 301 299 301 301 304 307 304 309 311 308 309 311 311 317 320 324 330 341 344 346 349 351 352 351 350 350 349 347 343 343 342 342 343 340 339 348 347 345 341 339 340 340 339 339 337 337 336 335
306 301 301 306 307 305 306 306 307 306 306 307 309 313 315 316 318 322 329 338 342 345 348 351 351 350 350 346 350 348 348 348 348 348 348 349 347 347 342 339 335 336 337 337 337 335 334 335 338
306 300 305 306 308 308 306 306 309 306 304 308 307 310 313 313 315 319 320 327 337 343 345 348 350 351 350 347 347 346 347 346 347 349 346 346 345 346 346 340 337 336 336 338 336 334 336 339 339
302 305 306 307 308 307 305 307 305 307 307 311 311 312 312 312 313 316 317 320 327 337 342 349 348 349 350 348 345 345 344 347 346 347 350 347 345 345 342 338 338 336 334 337 334 334 334 336 337
302 303 305 307 306 306 307 304 304 305 310 312 312 311 312 312 313 315 316 319 323 329 339 347 345 348 348 350 347 346 346 345 347 347 346 345 342 341 340 335 336 337 335 332 331 332 332 332 334
302 302 302 303 303 305 302 303 305 307 310 310 310 311 312 313 314 314 315 317 320 324 333 348 347 347 347 347 346 346 345 344 345 344 345 345 343 340 337 335 334 334 334 332 331 331 330 330 331
304 299 301 302 302 302 305 300 301 307 309 309 309 311 311 313 314 315 316 317 320 323 327 345 350 345 346 344 344 343 343 343 341 343 345 343 342 340 337 333 333 337 333 335 331 330 330 329 331
296 298 293 299 300 302 301 295 303 308 308 307 309 310 311 313 314 316 318 317 319 322 326 334 343 343 343 342 343 342 342 343 342 340 342 341 340 337 335 331 334 333 332 332 329 328 327 327 328
295 288 290 295 300 299 300 297 303 307 306 306 308 309 311 312 314 316 318 318 318 321 324 331 342 343 339 340 342 341 341 340 341 341 339 338 337 336 333 336 332 332 329 329 330 327 327 326 328
288 288 291 291 296 298 296 298 302 304 305 305 306 307 308 310 312 315 317 319 318 320 325 330 339 344 339 339 338 337 338 338 336 336 337 335 335 334 335 332 330 333 328 327 328 326 326 327 326
292 291 290 293 297 297 295 296 297 301 302 301 303 305 306 307 311 314 317 319 320 321 323 329 335 343 338 334 332 333 332 332 333 333 333 334 333 331 331 330 330 330 325 326 326 326 324 324 330
292 290 290 293 295 294 293 294 298 301 302 303 304 305 307 308 310 312 314 317 319 320 322 329 332 338 337 334 336 338 335 334 333 333 331 332 331 331 329 330 328 327 325 324 324 324 322 323 327
291 290 290 290 293 296 295 292 296 301 304 304 306 307 308 309 310 311 313 315 319 320 324 327 331 336 337 338 338 336 335 331 329 330 331 331 331 330 329 329 327 325 324 324 324 325 323 322 325
287 294 292 291 290 285 297 287 296 299 300 302 304 308 312 314 314 315 314 314 316 321 326 329 331 336 334 338 336 334 328 325 328 330 330 328 328 328 328 328 326 324 325 323 323 325 324 325 321
290 295 293 293 290 290 292 290 293 299 296 301 306 309 312 315 315 315 315 315 316 320 325 330 331 334 335 338 336 334 331 331 330 330 330 329 327 327 327 326 325 324 323 324 324 324 326 326 325
297 294 294 294 292 285 289 289 291 295 299 302 308 310 313 315 317 318 317 317 316 319 328 331 331 332 334 335 335 334 332 330 326 329 329 327 326 325 325 325 325 324 324 324 324 326 326 326 328
295 292 284 283 283 282 293 290 292 300 305 305 307 310 313 316 318 318 318 316 317 320 327 330 330 331 333 333 333 333 331 329 327 327 328 323 321 322 323 323 323 323 323 324 324 325 328 329 328
292 291 285 279 281 285 293 287 292 305 307 308 310 311 313 314 318 319 319 320 321 324 327 326 329 329 331 332 332 331 330 327 328 328 326 322 319 320 322 323 323 323 323 323 325 326 328 328 327
291 289 294 288 290 287 290 294 302 304 304 305 306 309 310 313 315 320 321 320 324 326 322 322 328 329 330 330 330 328 327 327 327 326 323 320 319 317 318 320 321 322 323 323 323 323 323 325 326
294 296 287 290 280 280 286 289 292 298 299 302 303 307 309 311 312 314 321 320 324 325 320 321 327 327 327 327 328 326 325 326 327 325 320 318 319 318 317 318 318 319 321 322 321 321 323 324 326
291 291 292 292 290 283 283 288 301 299 299 299 302 306 308 309 307 307 316 322 324 325 320 320 324 325 325 325 324 324 323 325 326 325 322 318 318 318 317 318 318 318 319 320 321 322 321 320 320
295 292 293 286 285 289 288 289 302 302 300 302 304 306 308 308 303 303 305 316 320 319 320 319 324 323 323 323 322 323 323 323 323 323 321 320 317 317 317 316 316 315 314 315 315 314 315 314 314
Wind_Speed
9 12 11 8 10 10 18 18 8 3 5 6 5 7 6 10 4 2 4 10 13 14 16 15 11 12 12 11 10 12 15 16 16 15 14 15 14 14 13 14 15 16 17 16 17 16 15 16 15
14 13 8 8 11 16 15 18 8 10 5 3 5 7 9 10 1 10 9 9 15 15 15 14 11 11 11 11 11 11 14 16 16 16 15 16 15 15 14 14 14 16 17 17 17 18 17 16 14
17 12 10 8 18 20 18 15 2 8 5 8 9 8 10 7 4 2 13 14 16 14 14 14 13 12 10 9 9 9 12 13 15 16 16 17 17 16 15 14 13 16 17 17 18 17 17 14 13
11 9 10 15 24 21 24 23 7 9 5 8 7 4 4 5 3 5 17 14 14 14 13 20 14 12 11 10 9 10 11 12 14 15 16 18 18 17 17 16 13 16 17 16 16 16 16 14 13
13 9 15 20 26 26 21 11 8 12 8 5 6 14 6 9 3 1 12 13 14 12 12 15 13 12 11 11 10 9 10 12 13 16 17 18 18 19 18 16 15 16 16 17 16 18 17 15 14
11 13 18 20 26 24 22 15 12 13 11 14 9 12 7 7 4 7 8 13 11 11 11 12 12 12 11 10 10 10 10 12 13 14 16 17 18 18 17 17 16 16 15 15 18 19 17 16 14
18 15 22 26 25 22 16 13 15 17 19 18 16 15 12 7 7 1 8 13 11 11 10 12 12 12 9 9 10 10 9 10 11 12 16 18 17 14 17 18 18 18 13 16 18 21 19 16 13
15 17 29 25 21 25 16 8 18 15 21 18 9 8 16 9 6 3 7 11 11 10 10 10 11 13 13 12 10 10 10 9 9 9 10 13 13 14 14 15 13 15 15 17 18 17 20 18 13
18 19 23 28 25 22 9 16 20 13 17 13 11 15 4 4 3 4 8 10 11 10 11 11 11 12 11 11 12 11 10 9 8 8 6 8 10 14 16 14 12 13 13 14 15 11 14 19 14
20 18 29 22 21 17 9 23 18 12 13 18 14 11 14 8 8 8 9 12 15 15 14 12 12 12 11 9 11 12 12 11 11 11 11 10 11 11 13 9 9 12 13 12 13 13 11 16 11
23 26 24 25 20 15 17 21 21 18 20 16 15 17 18 13 12 12 10 12 17 17 13 12 12 13 13 10 8 7 6 8 9 12 12 11 10 8 7 7 8 6 10 7 9 10 8 10 8
27 26 22 24 27 14 22 23 25 23 21 16 17 17 18 17 14 15 15 15 15 18 19 16 13 14 12 8 7 8 9 8 7 9 10 8 6 8 8 8 9 9 7 11 9 7 9 10 12
24 24 21 24 18 23 21 24 25 26 23 21 19 22 20 17 17 17 18 17 16 16 18 18 15 15 15 12 10 8 8 8 10 7 9 8 10 9 10 7 10 7 8 8 8 9 9 7 11
19 21 21 20 26 23 24 26 27 27 24 22 22 22 20 20 20 19 19 20 17 16 16 17 18 18 15 14 12 10 9 6 9 9 9 13 9 11 9 10 9 10 9 7 8 10 11 9 12
19 22 20 21 21 21 21 29 30 27 26 25 24 22 22 22 21 20 20 20 18 15 16 16 17 14 16 17 12 10 10 9 9 10 12 12 13 11 12 9 9 8 8 10 7 5 9 10 12
16 20 21 17 21 24 23 29 24 22 16 26 24 21 22 21 20 21 20 21 21 17 17 15 15 17 16 15 14 10 11 10 9 7 8 10 12 11 12 5 7 7 6 7 8 7 7 10 13
20 20 23 22 18 11 18 19 16 2 7 10 12 13 14 16 19 18 18 19 20 19 17 16 17 19 15 14 13 10 12 9 8 10 10 11 11 14 10 9 8 10 7 7 9 7 8 9 9
20 22 19 20 18 15 18 23 19 18 15 19 19 19 18 18 18 16 17 18 19 18 15 15 15 18 15 10 9 8 8 8 6 7 8 11 10 13 13 7 8 12 10 9 9 10 8 10 10
18 21 17 17 16 11 15 21 23 22 22 22 22 20 20 20 20 18 17 17 17 15 14 15 17 19 13 10 10 10 9 7 7 7 11 12 12 13 12 9 8 11 11 11 13 8 10 11 10
21 23 23 21 20 19 20 25 24 22 20 23 22 20 19 18 16 16 19 18 18 15 14 16 17 19 14 10 11 11 10 8 8 8 10 11 13 12 11 11 9 12 11 13 13 11 9 8 7
21 23 19 20 17 17 20 25 28 27 21 23 19 15 12 13 15 16 17 18 18 17 16 16 18 19 16 18 13 10 6 4 5 8 9 12 13 12 13 13 11 13 11 12 14 13 14 11 10
22 20 20 18 16 12 6 9 14 5 10 8 5 4 7 10 13 15 17 17 19 17 16 16 17 18 16 21 17 16 10 8 8 9 9 8 12 13 14 12 13 12 10 13 14 12 12 13 13
19 15 16 16 14 17 18 11 16 13 10 11 1 5 8 8 10 13 13 16 19 18 15 13 16 18 18 20 16 13 14 11 10 8 12 12 11 12 12 13 13 13 10 12 15 15 15 13 12
14 10 12 11 11 15 17 15 10 11 7 5 6 5 7 9 9 10 12 15 17 16 14 13 15 17 18 18 17 15 14 10 9 9 8 8 7 9 10 15 13 13 13 12 15 15 18 13 12
16 14 9 11 12 13 12 12 13 13 8 3 5 9 11 12 11 8 9 9 14 12 13 12 16 18 18 17 17 15 13 13 9 10 7 8 5 6 10 12 15 13 12 13 12 12 14 13 12
20 17 10 12 10 13 14 8 7 15 6 1 7 8 11 15 15 11 8 6 7 9 12 12 16 17 17 16 14 11 10 7 8 7 6 6 6 7 9 15 14 15 15 13 11 11 12 11 11
13 19 20 13 13 6 7 10 8 9 11 5 10 11 13 17 18 17 13 4 7 11 10 11 14 17 16 15 12 11 10 9 7 7 8 5 6 5 6 9 12 15 17 17 13 9 9 10 9
12 12 9 8 6 8 11 14 11 10 5 8 10 12 15 17 19 20 17 2 5 13 11 9 13 12 14 13 11 10 9 8 6 8 9 8 6 9 9 9 8 11 12 16 15 11 10 9 8
13 12 8 7 10 6 7 6 14 9 10 11 12 13 15 17 16 17 17 14 4 14 11 10 14 13 12 12 10 9 10 9 8 8 8 9 9 10 11 10 10 9 10 11 11 12 10 11 10
19 16 16 7 10 6 5 2 4 14 13 13 13 13 14 15 15 15 17 14 11 9 9 8 11 11 9 10 9 9 10 11 8 8 8 10 10 10 11 10 10 8 8 9 9 9 8 7 8
Wind_Direction
225 221 233 239 246 229 254 244 220 244 234 217 332 251 285 285 204 19 107 97 121 135 138 159 151 153 164 176 178 174 174 172 169 165 160 154 152 151 152 148 150 149 143 144 142 144 140 135 122
220 219 233 266 242 250 242 234 187 248 193 83 242 242 251 253 103 109 143 137 142 142 140 153 154 155 164 171 173 176 179 175 169 166 164 155 156 156 156 153 152 150 146 147 147 145 140 132 126
253 217 247 230 235 246 260 267 22 224 93 244 220 232 226 241 100 2 102 150 150 150 148 139 153 157 163 169 170 170 173 173 168 168 167 159 160 158 158 159 156 155 152 154 149 143 130 127 125
209 211 251 253 248 238 243 267 159 232 162 253 247 225 215 2 96 222 134 158 157 158 157 139 151 156 161 166 166 163 166 167 166 167 167 164 163 164 168 166 165 161 156 162 152 141 130 127 127
218 231 233 239 242 256 266 254 327 258 217 222 220 248 197 150 234 303 145 164 170 159 138 152 153 160 160 166 165 174 167 165 165 165 167 170 168 180 177 170 170 160 159 161 151 139 132 130 131
219 233 241 243 245 243 245 229 235 237 227 225 222 256 266 93 203 175 175 171 172 161 152 148 161 161 161 164 163 179 174 165 168 169 168 170 176 177 173 167 169 159 162 157 143 134 132 133 136
233 227 246 253 261 264 243 226 246 253 234 229 230 246 247 145 21 318 199 177 174 167 166 155 171 176 160 167 165 182 174 170 175 181 175 176 176 177 172 176 178 173 153 146 145 142 138 139 144
242 255 258 251 257 263 265 252 263 235 257 262 277 214 241 96 79 233 200 194 177 177 179 167 179 179 182 178 170 173 179 177 180 188 198 196 182 176 186 183 176 170 155 151 149 148 140 136 147
233 249 249 250 258 264 267 255 268 237 260 248 235 244 88 90 184 182 185 206 190 187 187 176 187 184 186 184 174 172 177 184 180 180 197 183 195 189 191 194 175 168 160 168 137 141 148 135 143
230 240 247 264 268 270 241 250 236 221 243 249 223 235 264 238 242 228 214 202 204 196 193 187 184 188 189 193 169 194 191 199 203 207 197 209 197 199 198 170 112 116 116 119 141 146 162 150 156
222 243 262 265 262 271 262 264 274 259 252 247 242 220 234 229 240 229 239 233 213 209 194 189 193 192 191 196 187 190 183 204 203 210 205 199 191 203 192 156 144 145 149 155 151 137 194 176 167
241 245 261 267 274 254 250 267 269 268 265 266 258 257 250 243 233 237 239 240 232 210 202 170 207 193 201 198 193 201 198 191 200 200 206 198 182 186 173 165 174 168 163 164 170 157 205 191 178
239 254 258 274 258 272 270 263 267 263 265 258 249 247 254 251 241 243 243 240 231 229 204 181 192 205 197 186 190 202 217 201 187 187 194 197 189 182 179 177 177 173 171 177 181 171 184 209 190
263 263 257 264 265 253 257 266 266 261 259 258 246 243 241 239 240 240 239 237 235 232 225 182 189 209 198 198 185 194 183 201 207 199 191 203 194 187 169 179 179 182 172 172 186 189 187 178 206
254 261 267 257 253 260 260 257 252 260 253 251 245 239 241 242 240 228 236 235 232 229 227 190 186 188 204 200 184 189 199 191 204 205 207 197 204 194 185 180 175 183 177 181 190 201 158 173 200
259 257 257 255 248 244 233 260 265 265 248 231 238 236 239 237 237 236 229 229 230 220 223 208 185 180 207 201 195 187 197 198 194 192 198 199 203 189 199 167 186 171 154 164 168 175 174 191 199
249 252 260 271 226 239 253 258 259 299 227 250 258 249 239 234 234 234 231 230 225 224 211 201 196 186 192 203 197 185 187 190 203 204 198 188 191 195 190 196 184 167 160 162 170 171 186 191 200
237 248 248 252 259 221 238 257 260 266 237 259 261 259 253 249 241 240 229 231 230 228 214 199 197 179 183 192 195 182 188 190 177 197 197 185 195 197 200 196 192 169 164 168 170 174 198 195 186
261 275 266 265 263 278 274 271 271 264 257 258 257 253 253 250 247 238 240 233 231 218 210 202 197 176 180 184 185 186 187 183 194 189 199 190 192 196 203 208 194 164 164 172 175 173 192 212 186
241 252 258 268 274 278 273 270 263 260 253 250 253 256 255 256 253 245 236 227 227 213 223 212 203 189 178 184 195 200 191 199 196 187 193 194 193 193 196 201 188 178 177 169 176 176 183 204 183
231 241 253 261 266 275 268 272 256 243 244 242 247 257 271 272 266 261 251 229 224 203 220 214 204 189 179 192 200 195 152 157 188 197 206 198 199 194 198 199 182 177 173 172 179 176 181 187 191
236 244 249 261 265 257 203 287 312 202 216 205 204 271 307 301 284 278 250 245 223 221 205 209 204 177 185 202 196 179 178 194 199 200 205 191 194 197 197 182 177 175 174 177 179 185 187 186 177
233 233 247 238 242 261 261 254 275 226 219 173 276 320 294 306 290 293 265 236 237 217 195 204 205 183 186 205 203 176 204 200 183 207 194 193 190 198 184 176 176 176 180 183 178 186 196 190 180
227 222 219 236 261 251 248 251 251 200 107 36 4 329 355 342 304 291 279 240 218 213 174 192 201 195 186 198 204 195 204 214 202 195 195 192 182 191 188 180 173 169 173 177 182 181 196 185 190
220 206 216 217 216 237 269 208 227 112 95 25 332 9 4 353 342 317 293 234 221 181 167 183 201 192 185 192 196 193 204 207 200 206 198 184 174 191 188 182 173 172 171 171 176 189 192 185 187
203 214 232 229 231 223 183 224 232 90 134 67 3 6 6 5 352 347 326 242 226 172 149 199 197 188 179 187 188 193 189 192 209 171 184 195 185 191 193 187 181 181 172 171 176 189 190 187 189
195 218 232 287 248 260 203 181 144 153 74 358 11 5 3 10 358 354 332 241 198 138 157 201 204 183 175 187 179 179 179 199 170 160 176 167 159 152 156 161 175 174 175 170 177 175 175 180 184
226 205 215 231 253 234 252 229 109 107 102 35 360 7 2 10 5 348 340 14 172 136 154 190 226 169 176 185 177 166 183 168 144 153 164 161 148 150 144 135 141 159 151 155 165 169 172 179 185
201 224 206 260 265 280 261 120 111 107 51 13 355 13 10 9 9 352 338 335 179 130 154 182 219 171 165 180 180 166 170 155 155 151 153 155 144 148 147 143 143 142 139 145 151 160 156 172 178
200 205 201 225 198 229 306 82 220 54 28 2 354 15 19 11 14 1 352 339 32 112 150 183 221 155 161 180 170 168 166 145 156 150 145 154 150 153 151 147 138 139 143 145 144 149 155 166 189